Location: アルンシュタイン
(50.0000°N, 10.0000°E)
Time: 11:03:14
(UTC+01:00)

ISS - Pass Details

Date: 29 September 2023
Orbit: 416 x 417 km, 51.6° (Epoch: 01 December)

Event Time Altitude Azimuth Distance (km) Brightness Sun altitude
Rises 20:35:50 0° 287° (WNW) 2,371 2.0 -15.5°
Reaches altitude 10° 20:38:02 10° 278° (W) 1,500 0.4 -15.9°
Maximum altitude 20:41:07 35° 212° (SSW) 698 -2.5 -16.4°
Enters shadow 20:42:27 24° 166° (SSE) 898 -2.4 -16.6°
